Temperature
5 4 3 2 1 -0 -1 -1 -2 -2 -3 -3 -3 -3 -4 -4 -4 -4 -5 -5 -5 -5 -5 -5 -5 -5 -5 -5 -4 -4 -3 -3 -2 -0 1 4 6 8 9 10 10 11 11
5 4 3 2 0 -1 -2 -2 -3 -4 -4 -4 -5 -5 -5 -5 -5 -5 -6 -6 -6 -6 -6 -6 -6 -6 -6 -5 -5 -5 -4 -3 -3 -2 -1 1 4 7 8 9 9 10 10
4 4 2 1 -0 -2 -2 -3 -4 -5 -5 -5 -6 -6 -6 -6 -6 -6 -6 -6 -6 -6 -6 -7 -7 -6 -6 -6 -6 -5 -5 -4 -3 -2 -1 0 2 2 7 8 8 9 10
4 3 2 0 -1 -2 -3 -4 -5 -5 -6 -6 -6 -7 -7 -7 -7 -7 -7 -7 -7 -7 -7 -7 -7 -7 -7 -6 -6 -6 -5 -5 -4 -3 -2 -1 -0 0 2 6 7 7 8
4 3 1 -0 -1 -3 -4 -4 -5 -6 -6 -7 -7 -7 -8 -8 -8 -8 -8 -8 -8 -8 -8 -8 -8 -8 -8 -7 -7 -7 -6 -5 -5 -4 -3 -2 -1 -0 1 2 4 6 7
3 2 1 -1 -2 -3 -4 -5 -6 -6 -7 -7 -7 -8 -8 -8 -8 -8 -8 -8 -8 -8 -9 -9 -9 -9 -8 -8 -8 -7 -7 -6 -5 -5 -4 -3 -2 -1 -0 1 2 3 5
2 1 -0 -2 -3 -4 -5 -5 -6 -6 -7 -7 -8 -8 -8 -9 -9 -9 -9 -9 -9 -9 -9 -9 -9 -9 -9 -9 -8 -8 -7 -6 -6 -5 -4 -4 -3 -2 -1 -0 0 1 3
2 0 -1 -2 -3 -4 -5 -6 -6 -7 -7 -8 -8 -8 -9 -9 -9 -10 -10 -10 -10 -10 -10 -10 -10 -10 -10 -9 -9 -8 -8 -7 -6 -6 -5 -4 -4 -3 -2 -1 -0 1 2
1 -1 -2 -3 -4 -4 -5 -6 -7 -7 -7 -8 -8 -9 -9 -9 -10 -10 -10 -10 -10 -11 -11 -11 -11 -10 -10 -10 -9 -9 -8 -8 -7 -6 -5 -5 -5 -4 -3 -2 -1 -0 1
0 -1 -2 -3 -4 -5 -5 -6 -7 -7 -8 -8 -8 -9 -9 -10 -10 -10 -11 -11 -11 -11 -11 -11 -11 -11 -11 -10 -10 -9 -9 -8 -7 -6 -6 -5 -5 -4 -4 -3 -2 -1 -0
-1 -2 -3 -4 -4 -5 -6 -6 -7 -7 -8 -8 -9 -9 -9 -10 -10 -11 -11 -11 -11 -11 -11 -12 -11 -11 -11 -11 -10 -10 -9 -8 -7 -7 -6 -6 -6 -5 -4 -4 -3 -2 -1
-1 -2 -3 -4 -5 -6 -6 -7 -7 -8 -8 -9 -9 -9 -10 -10 -11 -11 -11 -12 -12 -12 -12 -12 -12 -12 -12 -11 -11 -10 -9 -8 -8 -7 -7 -6 -6 -6 -5 -4 -4 -3 -2
-2 -3 -4 -5 -5 -6 -7 -7 -7 -8 -8 -9 -9 -9 -10 -11 -11 -12 -12 -12 -12 -12 -12 -12 -12 -12 -12 -11 -11 -10 -10 -9 -8 -7 -7 -7 -7 -6 -6 -5 -4 -3 -3
-3 -4 -5 -5 -6 -6 -7 -7 -8 -8 -9 -9 -9 -10 -10 -11 -12 -12 -12 -12 -13 -13 -13 -13 -13 -12 -12 -12 -11 -10 -10 -9 -8 -8 -7 -7 -7 -6 -6 -5 -5 -4 -3
-4 -5 -5 -6 -6 -7 -7 -7 -8 -8 -9 -9 -10 -10 -11 -12 -12 -12 -13 -13 -13 -13 -13 -13 -13 -13 -12 -12 -11 -10 -10 -9 -8 -8 -7 -7 -7 -7 -6 -6 -5 -4 -4
-4 -5 -6 -6 -6 -7 -7 -8 -8 -8 -9 -10 -10 -11 -12 -12 -12 -13 -13 -13 -13 -13 -13 -13 -13 -13 -13 -12 -11 -10 -10 -9 -8 -8 -8 -8 -7 -7 -7 -6 -6 -5 -5
-5 -5 -6 -6 -7 -7 -8 -8 -8 -9 -9 -10 -11 -12 -12 -12 -12 -13 -13 -13 -13 -13 -13 -13 -13 -13 -13 -12 -11 -10 -10 -9 -9 -8 -8 -8 -8 -7 -7 -7 -7 -6 -6
-5 -5 -6 -6 -7 -7 -8 -8 -8 -9 -10 -10 -11 -12 -12 -12 -13 -13 -13 -13 -13 -13 -13 -13 -13 -13 -13 -12 -11 -10 -10 -9 -9 -9 -8 -8 -8 -8 -7 -7 -7 -7 -7
-5 -6 -6 -6 -7 -7 -8 -8 -8 -9 -10 -11 -11 -12 -12 -13 -13 -13 -13 -13 -13 -13 -13 -13 -13 -13 -13 -12 -11 -10 -10 -10 -9 -9 -9 -8 -8 -8 -8 -8 -8 -8 -8
-5 -5 -6 -6 -7 -7 -8 -8 -9 -10 -10 -11 -11 -12 -12 -13 -13 -13 -13 -13 -13 -13 -13 -13 -13 -13 -13 -12 -11 -10 -10 -10 -10 -9 -9 -9 -8 -8 -8 -8 -9 -9 -9
-5 -5 -6 -6 -7 -7 -8 -8 -9 -10 -10 -11 -11 -12 -12 -13 -13 -13 -13 -13 -14 -13 -13 -13 -13 -13 -13 -12 -11 -11 -11 -11 -10 -10 -10 -9 -9 -9 -9 -9 -9 -10 -9
-5 -5 -6 -6 -7 -7 -8 -9 -9 -10 -10 -10 -11 -12 -12 -13 -13 -13 -13 -14 -14 -13 -13 -13 -13 -13 -13 -12 -12 -11 -11 -11 -11 -11 -11 -10 -10 -10 -10 -10 -10 -10 -9
-5 -6 -6 -6 -7 -8 -8 -9 -9 -9 -10 -10 -11 -12 -12 -13 -13 -13 -14 -14 -14 -13 -14 -13 -13 -13 -13 -13 -12 -12 -12 -12 -12 -11 -11 -11 -11 -11 -11 -11 -11 -10 -10
-5 -6 -6 -6 -7 -7 -8 -9 -9 -9 -9 -10 -11 -12 -12 -13 -13 -13 -14 -14 -14 -13 -13 -13 -13 -13 -13 -13 -13 -13 -12 -12 -12 -12 -12 -12 -12 -12 -12 -12 -11 -11 -12
-5 -6 -6 -6 -7 -7 -8 -9 -9 -9 -9 -10 -11 -11 -12 -13 -13 -13 -14 -14 -14 -13 -13 -13 -13 -13 -13 -13 -13 -13 -13 -13 -13 -13 -13 -13 -13 -13 -13 -13 -13 -12 -12
-5 -6 -6 -6 -7 -7 -8 -8 -8 -9 -9 -10 -10 -11 -12 -12 -13 -13 -13 -14 -14 -14 -14 -13 -13 -13 -13 -13 -13 -13 -13 -13 -13 -13 -14 -14 -14 -14 -14 -14 -14 -14 -14
Wind_Speed
9 9 9 9 10 11 12 13 13 13 13 11 12 12 12 11 12 18 22 22 23 23 20 16 16 16 12 14 15 14 15 13 12 12 13 12 13 14 12 11 10 9 7
8 9 9 9 10 10 11 12 12 12 11 10 10 8 10 8 13 18 20 21 23 23 20 17 14 14 11 13 14 14 11 12 11 11 11 7 7 6 8 7 8 9 7
9 8 8 9 9 10 10 12 12 11 12 16 12 11 7 8 8 10 8 19 23 22 20 18 17 15 11 11 13 13 14 13 12 10 7 6 5 11 10 10 7 6 6
8 7 8 9 9 9 9 10 11 10 12 15 11 13 11 11 12 10 8 17 22 21 20 19 18 16 12 11 12 13 12 13 12 11 9 10 9 7 8 10 10 10 9
8 8 9 9 9 9 8 9 10 9 11 12 11 11 10 9 10 11 11 10 16 19 19 20 19 16 13 10 11 12 12 11 11 11 11 12 11 10 8 11 13 11 9
9 9 9 9 8 8 8 8 9 9 9 9 9 11 12 12 13 13 12 11 8 12 17 21 19 18 14 11 12 11 13 12 12 11 10 11 9 9 8 9 12 13 12
8 8 9 9 8 9 8 9 10 10 10 10 10 11 11 11 12 12 12 13 11 10 9 18 17 16 16 17 15 11 12 12 12 12 10 10 10 10 11 11 11 13 12
8 9 9 8 8 9 9 9 10 10 10 10 11 9 9 9 8 11 11 11 10 9 15 19 19 19 20 19 15 11 11 11 12 13 12 10 10 10 10 9 9 10 10
8 8 8 8 8 8 9 9 10 10 10 10 11 10 10 10 10 10 9 7 10 15 19 19 17 18 18 17 13 10 11 12 12 12 12 10 9 9 9 9 9 9 9
8 8 8 8 8 8 8 9 9 10 10 10 11 14 10 9 10 9 11 10 12 16 16 15 15 15 15 15 12 11 11 13 13 12 11 10 9 9 9 9 9 9 9
8 8 8 8 8 8 8 8 9 10 10 11 11 11 11 10 11 9 10 10 12 14 13 13 13 14 14 12 13 13 13 15 16 14 11 10 10 9 9 9 9 9 8
8 8 9 9 8 9 9 9 9 10 10 11 11 12 12 11 11 12 11 14 12 14 15 14 13 15 15 14 14 14 15 17 16 14 11 9 9 10 9 9 10 9 9
9 8 8 8 9 9 9 10 10 10 11 12 12 13 13 13 13 13 12 14 13 12 14 11 13 14 14 15 14 13 16 17 15 12 9 9 9 9 9 10 9 8 9
8 8 8 8 9 9 9 10 11 11 13 13 13 13 13 13 13 12 11 12 13 12 12 11 12 13 14 15 13 14 15 15 14 11 9 9 9 9 10 9 9 9 9
9 9 9 9 9 10 10 10 11 11 13 13 13 13 13 13 12 12 13 11 12 14 12 12 13 12 13 13 16 14 14 14 13 10 9 9 11 13 11 9 8 8 7
8 9 9 9 10 10 10 11 11 12 12 13 13 14 13 12 12 12 12 12 12 12 12 13 13 13 15 23 26 20 12 13 11 9 8 9 10 13 14 15 14 14 10
7 8 8 9 9 9 10 11 11 12 13 13 13 12 12 12 12 14 13 12 11 11 11 12 12 12 16 26 26 24 15 12 9 8 7 8 10 11 7 10 13 14 17
7 7 8 8 9 8 9 10 11 12 13 12 11 12 12 12 12 11 11 11 10 10 10 11 12 12 17 26 25 24 14 11 9 8 7 7 8 8 8 8 8 9 11
6 6 7 8 9 9 10 11 12 13 11 11 13 13 13 13 12 12 11 10 10 10 10 11 12 12 15 24 25 20 9 9 10 10 9 9 6 11 15 10 9 9 10
5 6 7 7 8 9 10 11 13 12 12 13 14 14 13 12 12 12 11 10 10 11 12 12 12 12 12 22 24 20 7 8 9 9 11 14 12 15 17 11 9 10 10
6 7 8 7 8 9 10 11 11 12 13 13 14 13 12 12 11 10 9 10 10 11 11 12 11 11 15 20 25 22 9 8 9 9 9 10 18 20 20 17 11 14 12
7 7 8 8 9 9 10 10 11 11 12 13 14 12 12 12 12 10 9 9 10 10 10 10 11 9 11 18 21 25 21 15 10 9 7 11 21 22 22 17 19 21 16
6 6 7 9 9 9 9 10 11 12 13 13 13 12 12 10 10 9 9 8 8 9 10 9 10 10 10 13 23 24 23 21 11 9 16 19 21 19 16 21 23 18 12
5 6 8 9 10 10 9 9 10 11 12 13 13 11 10 10 9 8 8 8 8 9 9 9 9 9 9 8 8 9 11 15 11 9 14 19 20 17 18 17 14 12 11
5 6 7 8 9 9 10 9 9 11 11 12 11 11 11 9 9 10 9 11 8 12 10 6 7 8 7 13 18 12 9 7 9 9 7 8 8 10 9 9 10 10 10
5 6 7 8 9 9 10 9 8 10 12 12 11 9 8 9 8 8 9 16 18 20 19 18 15 10 15 18 18 17 18 18 18 11 7 8 9 9 9 9 9 9 9
Wind_Direction
25 40 36 33 23 18 14 3 358 355 355 354 345 343 340 337 337 345 347 343 342 340 339 342 340 337 334 332 332 333 328 327 324 321 318 301 281 267 265 263 262 255 243
16 21 26 31 22 18 12 0 356 352 354 351 340 338 332 329 336 342 338 339 340 340 341 345 341 336 332 329 331 331 328 326 330 323 319 311 304 331 297 278 261 251 242
14 10 19 28 21 19 12 359 352 349 350 349 342 339 327 332 338 336 333 340 340 338 340 343 342 334 330 326 328 328 331 326 321 318 314 316 324 330 307 315 309 305 271
15 13 25 27 21 18 11 359 349 346 348 348 343 341 340 338 335 333 330 337 337 335 338 344 341 333 328 325 327 332 324 321 319 318 309 308 306 300 310 313 320 319 309
20 22 31 28 20 15 8 355 345 345 346 347 342 339 334 332 330 329 331 333 331 333 339 342 339 332 326 323 323 322 320 317 312 312 312 310 305 288 289 299 310 319 318
24 26 27 22 14 12 5 351 345 343 343 344 340 338 334 334 332 334 334 332 328 332 338 338 335 328 325 322 318 317 317 314 311 312 310 308 305 306 301 295 303 306 309
26 22 19 12 9 5 359 350 346 341 342 341 340 336 334 332 330 333 331 329 331 333 331 335 331 327 324 322 320 317 315 312 311 310 307 306 303 302 301 296 295 296 301
29 24 17 11 7 2 357 351 345 341 341 340 338 331 332 330 327 328 326 326 329 326 328 332 327 325 324 322 319 316 315 315 313 309 308 306 306 306 302 299 298 294 292
30 21 12 11 7 2 357 350 344 340 339 339 336 330 332 328 326 324 321 323 326 328 330 328 326 325 323 321 320 317 318 317 313 308 305 307 308 307 305 302 298 289 285
29 18 11 8 6 2 352 347 342 337 336 338 336 334 327 324 324 322 323 324 326 327 326 326 325 325 323 322 321 320 317 320 317 310 305 309 310 309 309 307 304 294 283
31 16 11 6 1 357 350 344 341 339 339 337 332 328 325 324 325 322 322 323 323 325 324 324 325 325 323 324 321 318 321 323 317 312 310 312 315 316 314 312 310 305 295
31 18 10 360 356 352 346 343 342 340 338 334 330 328 326 326 325 324 323 324 321 322 322 323 324 324 325 323 319 321 327 321 317 314 313 316 319 318 318 314 308 307 306
24 14 4 356 352 347 344 343 342 339 336 334 331 329 328 326 324 323 322 322 319 318 320 322 322 322 322 320 316 322 322 319 317 315 318 318 317 318 317 314 312 312 311
18 7 359 351 347 344 343 342 338 339 337 334 330 326 323 321 319 320 320 320 320 320 321 320 319 319 319 315 313 320 318 319 318 317 316 315 314 313 315 316 320 319 315
8 3 354 345 343 341 340 338 335 336 333 328 322 317 315 315 318 320 321 323 324 325 320 321 319 317 318 316 317 318 319 320 316 315 316 317 327 333 337 337 339 339 335
2 356 349 344 340 337 336 334 332 330 325 318 313 312 316 320 322 323 325 325 323 321 322 321 319 319 324 320 323 326 322 320 315 315 321 328 337 343 351 354 8 11 8
358 349 343 338 333 332 332 331 328 323 317 312 312 318 323 325 325 328 329 325 323 323 321 318 317 316 317 324 327 332 337 325 317 321 331 343 346 352 353 7 20 16 18
355 344 337 330 326 327 331 328 323 317 313 316 325 329 327 326 327 328 328 326 324 323 319 318 319 320 323 329 332 340 346 334 333 338 345 346 338 356 27 31 28 22 17
0 343 335 328 329 335 337 329 321 317 322 332 335 332 331 331 332 333 331 329 327 325 324 324 325 325 326 332 337 351 345 346 349 353 2 353 350 28 49 42 31 25 19
0 347 338 335 336 337 331 323 320 326 336 337 333 330 331 332 331 333 334 334 334 334 333 332 332 330 327 336 347 1 357 359 359 1 -0 8 33 54 58 45 34 33 21
358 355 345 338 335 329 322 319 323 334 335 333 328 329 332 331 334 336 336 338 339 338 336 335 336 337 345 349 353 7 17 17 11 10 8 19 43 51 52 50 42 42 35
2 357 344 333 329 323 322 324 330 331 333 331 329 331 334 339 345 340 339 340 339 339 339 340 344 346 348 355 1 13 20 30 23 20 21 32 44 45 46 46 42 41 36
359 348 338 328 325 321 325 329 329 334 335 333 332 333 337 339 342 343 341 343 341 342 349 349 349 349 354 357 10 13 14 19 27 25 38 44 46 42 38 40 41 38 34
350 342 336 327 320 320 329 328 330 336 335 333 333 337 340 340 342 345 345 346 344 346 355 351 350 349 352 351 2 4 8 13 22 26 34 39 41 41 38 37 35 31 34
339 333 322 314 315 323 329 331 337 338 334 332 333 339 342 337 341 347 348 350 345 356 360 347 346 353 355 8 17 19 13 15 37 36 29 29 29 31 29 31 31 30 28
320 319 319 321 320 324 328 333 338 338 335 336 338 339 340 341 342 339 343 353 357 359 1 1 6 2 8 14 17 19 23 31 39 40 29 30 29 29 27 27 27 27 27
Height
1610 1607 1604 1600 1595 1591 1585 1580 1574 1569 1563 1557 1551 1546 1542 1538 1535 1532 1527 1523 1518 1514 1510 1505 1501 1497 1493 1489 1485 1481 1477 1474 1471 1467 1461 1457 1457 1457 1458 1460 1462 1464 1467
1609 1607 1603 1599 1595 1590 1585 1579 1574 1568 1563 1558 1553 1548 1543 1538 1535 1530 1526 1521 1517 1513 1509 1504 1499 1495 1491 1487 1484 1480 1476 1473 1471 1468 1462 1457 1453 1452 1451 1453 1455 1458 1460
1608 1606 1602 1598 1594 1589 1584 1579 1573 1568 1562 1557 1552 1546 1541 1537 1532 1527 1523 1519 1515 1511 1507 1503 1498 1494 1490 1486 1483 1479 1475 1471 1469 1468 1467 1462 1456 1450 1446 1446 1448 1450 1453
1607 1605 1601 1597 1593 1589 1583 1578 1573 1567 1562 1556 1551 1545 1540 1535 1531 1526 1521 1517 1513 1509 1505 1501 1496 1492 1488 1484 1481 1477 1474 1470 1467 1465 1464 1462 1459 1456 1448 1441 1441 1443 1445
1606 1603 1600 1596 1593 1588 1583 1577 1572 1567 1561 1556 1550 1545 1540 1535 1530 1525 1520 1515 1510 1507 1503 1498 1493 1489 1485 1481 1478 1475 1471 1468 1466 1463 1460 1458 1456 1454 1451 1445 1437 1436 1438
1605 1603 1599 1596 1592 1587 1582 1576 1570 1565 1560 1554 1549 1544 1539 1533 1527 1522 1517 1512 1507 1504 1500 1495 1490 1486 1482 1478 1475 1471 1468 1465 1462 1460 1457 1455 1453 1450 1448 1445 1439 1434 1432
1603 1601 1598 1594 1590 1585 1580 1574 1569 1563 1558 1553 1548 1542 1537 1532 1527 1521 1515 1510 1505 1500 1496 1492 1487 1483 1479 1475 1471 1468 1465 1462 1459 1456 1454 1451 1449 1447 1445 1442 1439 1434 1430
1602 1600 1597 1593 1589 1584 1578 1573 1567 1562 1557 1551 1546 1541 1536 1530 1525 1520 1514 1509 1504 1498 1494 1489 1484 1480 1475 1471 1468 1464 1461 1458 1455 1452 1449 1447 1444 1442 1440 1439 1437 1433 1429
1601 1599 1596 1592 1587 1582 1577 1572 1566 1561 1555 1550 1544 1538 1533 1528 1523 1518 1513 1508 1502 1497 1491 1486 1481 1476 1472 1468 1464 1461 1457 1454 1450 1447 1445 1442 1440 1437 1435 1434 1433 1432 1428
1600 1598 1594 1591 1586 1581 1576 1571 1565 1560 1554 1548 1542 1537 1531 1526 1521 1515 1510 1505 1499 1494 1488 1483 1478 1473 1469 1465 1461 1457 1453 1450 1446 1443 1441 1438 1435 1433 1431 1429 1427 1426 1425
1598 1596 1593 1589 1585 1580 1575 1569 1564 1558 1552 1546 1540 1534 1529 1523 1518 1513 1508 1502 1497 1491 1486 1481 1475 1470 1466 1462 1458 1454 1450 1446 1442 1439 1437 1434 1431 1429 1426 1424 1422 1421 1420
1597 1595 1592 1588 1583 1579 1573 1568 1562 1557 1551 1545 1538 1532 1527 1521 1515 1510 1505 1500 1494 1489 1484 1478 1473 1468 1463 1459 1455 1451 1447 1442 1439 1436 1433 1430 1428 1425 1422 1420 1418 1416 1415
1596 1594 1590 1586 1582 1577 1572 1567 1561 1555 1549 1543 1536 1530 1524 1518 1512 1507 1502 1496 1491 1486 1481 1476 1471 1465 1461 1456 1452 1448 1444 1440 1436 1433 1430 1427 1425 1422 1419 1416 1414 1412 1410
1595 1592 1589 1585 1580 1576 1571 1565 1559 1553 1547 1540 1534 1528 1521 1516 1510 1505 1499 1494 1489 1483 1478 1473 1468 1463 1458 1454 1450 1446 1441 1436 1433 1430 1428 1425 1422 1419 1416 1413 1411 1408 1406
1594 1591 1588 1584 1579 1574 1569 1564 1558 1551 1545 1538 1532 1525 1519 1514 1508 1502 1497 1491 1486 1481 1475 1470 1465 1460 1456 1451 1447 1443 1438 1434 1430 1428 1425 1423 1420 1417 1414 1411 1408 1406 1403
1594 1590 1587 1582 1578 1573 1567 1562 1556 1549 1543 1536 1530 1524 1518 1512 1506 1500 1495 1489 1483 1478 1473 1468 1463 1458 1453 1448 1444 1440 1435 1430 1427 1425 1423 1420 1418 1415 1412 1409 1406 1404 1401
1592 1589 1586 1581 1577 1572 1566 1560 1554 1548 1541 1535 1528 1523 1516 1510 1504 1499 1493 1487 1481 1476 1471 1465 1460 1455 1450 1445 1440 1436 1431 1427 1425 1423 1421 1419 1416 1413 1410 1407 1404 1402 1400
1591 1588 1584 1580 1576 1571 1566 1560 1553 1546 1540 1534 1528 1521 1515 1509 1503 1497 1491 1486 1480 1475 1469 1464 1459 1454 1448 1443 1438 1433 1428 1425 1423 1422 1420 1417 1414 1412 1409 1407 1404 1401 1399
1590 1587 1584 1580 1575 1570 1564 1558 1551 1545 1539 1533 1526 1520 1514 1508 1502 1496 1490 1485 1479 1474 1468 1463 1458 1452 1447 1441 1436 1431 1427 1425 1423 1421 1418 1416 1414 1412 1409 1407 1404 1402 1399
1589 1586 1583 1578 1574 1569 1563 1557 1550 1544 1538 1532 1525 1519 1514 1508 1502 1496 1490 1485 1479 1474 1469 1463 1458 1453 1447 1442 1436 1432 1429 1426 1423 1421 1418 1416 1414 1412 1410 1408 1406 1403 1401
1588 1585 1581 1577 1573 1567 1562 1556 1550 1545 1539 1532 1525 1520 1514 1508 1502 1497 1491 1485 1480 1474 1469 1463 1458 1453 1448 1443 1438 1434 1431 1428 1425 1423 1420 1418 1416 1415 1413 1411 1409 1407 1404
1587 1584 1580 1576 1572 1567 1561 1556 1551 1545 1539 1532 1525 1519 1514 1508 1502 1497 1491 1485 1480 1474 1469 1464 1459 1455 1450 1446 1441 1438 1434 1431 1428 1426 1424 1422 1420 1418 1416 1414 1412 1409 1406
1586 1583 1579 1576 1571 1566 1561 1556 1551 1545 1538 1532 1525 1520 1514 1508 1503 1497 1491 1486 1481 1476 1471 1466 1462 1457 1453 1449 1445 1441 1437 1435 1432 1430 1429 1426 1423 1421 1419 1417 1414 1412 1409
1585 1582 1579 1575 1570 1566 1561 1557 1551 1545 1538 1532 1526 1520 1514 1508 1503 1498 1493 1487 1482 1477 1473 1469 1465 1461 1457 1452 1448 1445 1441 1438 1435 1433 1431 1429 1427 1425 1422 1420 1417 1415 1413
1584 1581 1578 1574 1570 1565 1561 1556 1551 1545 1538 1532 1526 1521 1515 1510 1504 1499 1495 1490 1485 1481 1477 1472 1468 1464 1460 1457 1453 1449 1445 1442 1440 1437 1434 1432 1429 1427 1425 1423 1421 1419 1417
1583 1580 1577 1573 1569 1565 1561 1556 1551 1545 1539 1532 1527 1521 1516 1511 1506 1500 1495 1491 1487 1483 1478 1475 1471 1467 1463 1459 1456 1452 1449 1446 1443 1440 1437 1435 1433 1431 1429 1427 1425 1423 1421